Regional Weather Roundup
Issued by NWS

Home | Current Version | Previous Version | Text Only | Print | Product List | Glossary Off
Versions: 1 2 3 4 5 6 7 8 9 10 11 12 13 14 15 16 17 18 19 20 21 22 23 24 25 26 27 28 29 30 31 32 33 34 35 36 37 38 39 40 41 42 43 44 45 46 47 48 49 50

000
ASUS43 KDTX 230510
RWRMI
MICHIGAN HOURLY REGIONAL WEATHER ROUNDUP
NATIONAL WEATHER SERVICE DETROIT/PONTIAC MI
100 AM EDT THU MAR 23 2017

NOTE: "FAIR" INDICATES FEW OR NO CLOUDS BELOW 12,000 FEET WITH NO
SIGNIFICANT WEATHER AND/OR OBSTRUCTION TO VISIBILITY.

MIZ047>049-052>055-059>063-066>070-074>076-081>083-230600-
SOUTHEAST LOWER MICHIGAN

CITY           SKY/WX    TMP DP  RH WIND       PRES   REMARKS
ADRIAN         CLEAR     25  16  68 S3        30.54S
ALMA           CLEAR     25  16  68 S3        30.53S
ANN ARBOR      CLEAR     23  17  78 CALM      30.53S
BAD AXE        CLEAR     18  14  84 S3        30.53S
CARO           CLEAR     19  10  68 CALM      30.53S
DETROIT CITY   CLEAR     23  16  74 S3        30.56S
DETROIT        PTCLDY    25  15  66 E5        30.55F WCI  19
FLINT          CLEAR     22  13  68 SE6       30.54R WCI  14
GROSSE ILE     CLEAR     24  15  68 E5        30.55S WCI  19
HILLSDALE      CLEAR     25  18  74 SE6       30.50R WCI  18
HOWELL         CLEAR     23  15  70 SE6       30.52S WCI  16

CITY           SKY/WX    TMP DP  RH WIND       PRES   REMARKS
JACKSON        CLEAR     25  17  72 SE8       30.51R WCI  16
LAMBERTVILLE   CLEAR     27  17  66 CALM      30.54S
LANSING        CLEAR     23  10  57 E3        30.52S
LAPEER         FAIR      20  16  84 CALM      30.53F
MASON          CLEAR     27  15  62 SE5       30.52R WCI  21
MONROE         CLEAR     27  18  68 E3        30.54S
MT. CLEMENS    CLEAR     21  17  84 CALM      30.54S
PONTIAC        CLEAR     23  15  71 SE5       30.52S WCI  17
PORT HOPE        N/A     20  14  77 S3        30.53S
PORT HURON     CLEAR     16  14  93 CALM      30.55F
TRI CITIES     CLEAR     24  13  62 S6        30.53S WCI  17
MIDLAND        FAIR      25  10  54 CALM      30.52S
TROY           CLEAR     26  15  64 CALM      30.56F
SAGINAW HB     CLEAR     23  12  63 S5        30.53S WCI  17
$$
MIZ043>046-050>051-056>058-064>065-071>073-077>080-230600-
SOUTHWEST LOWER MICHIGAN

CITY           SKY/WX    TMP DP  RH WIND       PRES   REMARKS
BATTLE CREEK   CLEAR     29  11  47 SE6       30.50S WCI  23
BENTON HARBOR  CLEAR     24  17  74 CALM      30.49S
BIG RAPIDS     CLEAR     23  15  71 CALM      30.50R
COLDWATER      CLEAR     28  15  60 SE5       30.50S WCI  22
FREMONT        FAIR      25  17  72 CALM      30.50S
HOLLAND        CLEAR     26  18  71 E5        30.51S WCI  20
GRAND RAPIDS   CLEAR     26  11  52 SE5       30.50S WCI  20
IONIA          FAIR      25  14  63 SE7       30.51S WCI  17
KALAMAZOO      CLEAR     28  10  46 SE5       30.50S WCI  23
LUDINGTON      CLEAR     19  17  90 CALM      30.50F
MARSHALL       CLEAR     27  10  49 CALM      30.50S
MOUNT PLEASANT CLEAR     25  12  58 CALM      30.51S
MUSKEGON       CLEAR     24  16  71 CALM      30.52S
SOUTH HAVEN    CLEAR     24  19  80 E5        30.49F WCI  18
$$
MIZ016>042-230600-
NORTHERN LOWER MICHIGAN

CITY           SKY/WX    TMP DP  RH WIND       PRES   REMARKS
ALPENA         CLEAR     16  13  88 CALM      30.53S
BEAVER ISLAND  CLEAR     17  13  85 CALM      30.50F
BELLAIRE       CLEAR     16  13  88 CALM      30.53S
CADILLAC       CLEAR     17   9  69 CALM      30.46S
CHARLEVOIX     CLEAR     18  13  81 CALM      30.54S
FRANKFORT      CLEAR     17  12  81 CALM      30.51F
GAYLORD        CLEAR     19   8  62 CALM      30.47S
GRAYLING       CLEAR     13   7  78 CALM      30.49S
HARBOR SPRINGS CLEAR     16  13  88 E3        30.50F
HOUGHTON LAKE  CLEAR     18  14  84 E5        30.49S WCI  11
MANISTEE       CLEAR     16  15  96 E3        30.51S
OSCODA         CLEAR     14   9  81 CALM      30.53S
PELLSTON       CLEAR     14   9  80 CALM      30.52S
ROGERS CITY    CLEAR     21  13  70 SE5       30.53S WCI  15
TRAVERSE CITY  CLEAR     19  13  77 CALM      30.51F
$$
MIZ007>008-015-230600-
EASTERN UPPER MICHIGAN

CITY           SKY/WX    TMP DP  RH WIND       PRES   REMARKS
KINROSS        CLEAR     15  11  83 CALM      30.50S
MACKINAC ISLAN CLEAR     19  15  87 W6        30.50S WCI  10
NEWBERRY       CLEAR     19  18  93 S3        30.48S
S. S. MARIE    CLOUDY    16   9  74 CALM      30.50F
MUNISING         N/A     24  14  65 S10       30.47S WCI  14
$$
MIZ004>006-011>014-085-230600-
CENTRAL UPPER MICHIGAN

CITY           SKY/WX    TMP DP  RH WIND       PRES   REMARKS
MANISTIQUE     CLEAR     18  16  93 CALM      30.48F
ESCANABA       CLEAR     18  16  92 CALM      30.49F
MENOMINEE        N/A    N/A N/A N/A MISG        N/A
SAWYER-GWINN   CLEAR     21  13  72 S9        30.43S WCI  11
$$
MIZ001>003-009>011-084-230600-
WESTERN UPPER MICHIGAN

CITY           SKY/WX    TMP DP  RH WIND       PRES   REMARKS
IRON MOUNTAIN  CLEAR     22  13  68 S6        30.42F WCI  14
HOUGHTON       CLOUDY    23  17  78 E5        30.38F WCI  17
COPPER HARBOR    N/A     26  19  74 SW12G20   30.40F WCI  16
IRONWOOD       CLOUDY    30  11  45 S8        30.35F WCI  22
$$

ABBREVIATIONS USED IN REMARKS
   TC - TEMPERATURE IN CELSIUS
  WCI - WIND CHILL INDEX
   HX - HEAT INDEX
  VSB - VISIBILITY





USA.gov is the U.S. government's official web portal to all federal, state and local government web resources and services.